• In Hungary
  • List of Countries
  • For 7 days
  • Water Temperature
  • Satellite Maps
  • Weather Map
  • News
  • Weather Widgets
  • user-avatar
    Login

    Hourly Weather Malaya Znamenka

    Today, 20 August, Monday

    Time Temperature Precipitation Wind Pressure Humidity
    00:00 +18°C° 0 mm 2 mps 752 mmHg 60%
    01:00 +18°C° 0 mm 2 mps 752 mmHg 62%
    02:00 +17°C° 0 mm 2 mps 752 mmHg 63%
    03:00 +17°C° 0 mm 2 mps 751 mmHg 66%
    04:00 +17°C° 0 mm 2 mps 751 mmHg 68%
    05:00 +17°C° 0 mm 2 mps 751 mmHg 69%
    06:00 +16°C° 0 mm 2 mps 751 mmHg 70%
    07:00 +18°C° 0 mm 2 mps 751 mmHg 66%
    08:00 +20°C° 0 mm 3 mps 751 mmHg 61%
    09:00 +24°C° 0 mm 3 mps 751 mmHg 55%
    10:00 +25°C° 0 mm 3 mps 751 mmHg 50%
    11:00 +26°C° 0 mm 3 mps 751 mmHg 46%
    12:00 +27°C° 0 mm 3 mps 751 mmHg 42%
    13:00 +28°C° 0 mm 3 mps 751 mmHg 41%
    14:00 +28°C° 0 mm 3 mps 751 mmHg 40%
    15:00 +28°C° 0 mm 3 mps 750 mmHg 39%
    16:00 +28°C° 0 mm 3 mps 750 mmHg 42%
    17:00 +27°C° 0 mm 3 mps 750 mmHg 46%
    18:00 +26°C° 0 mm 2 mps 749 mmHg 50%
    19:00 +25°C° 0 mm 2 mps 749 mmHg 53%
    20:00 +23°C° 0 mm 2 mps 749 mmHg 56%
    21:00 +21°C° 0 mm 2 mps 749 mmHg 59%
    22:00 +20°C° 0 mm 2 mps 749 mmHg 59%
    23:00 +19°C° 0 mm 3 mps 749 mmHg 60%

    Tomorrow, 21 August, Tuesday

    Time Temperature Precipitation Wind Pressure Humidity
    00:00 +19°C° 0 mm 3 mps 749 mmHg 60%
    01:00 +19°C° 0 mm 3 mps 749 mmHg 60%
    02:00 +18°C° 0 mm 3 mps 749 mmHg 60%
    03:00 +18°C° 0 mm 3 mps 748 mmHg 61%
    04:00 +18°C° 0 mm 3 mps 748 mmHg 62%
    05:00 +18°C° 0 mm 3 mps 748 mmHg 63%
    06:00 +17°C° 0 mm 3 mps 748 mmHg 64%
    07:00 +19°C° 0 mm 4 mps 748 mmHg 60%
    08:00 +21°C° 0 mm 5 mps 748 mmHg 55%
    09:00 +23°C° 0 mm 5 mps 748 mmHg 51%
    10:00 +24°C° 0 mm 6 mps 747 mmHg 48%
    11:00 +27°C° 0 mm 6 mps 747 mmHg 45%
    12:00 +28°C° 0 mm 7 mps 747 mmHg 42%
    13:00 +29°C° 0 mm 7 mps 746 mmHg 41%
    14:00 +29°C° 0 mm 7 mps 746 mmHg 40%
    15:00 +29°C° 0 mm 8 mps 745 mmHg 39%
    16:00 +29°C° 0 mm 7 mps 745 mmHg 43%
    17:00 +28°C° 0 mm 6 mps 745 mmHg 47%
    18:00 +27°C° 0 mm 5 mps 744 mmHg 50%
    19:00 +26°C° 0.3 mm 5 mps 744 mmHg 54%
    20:00 +25°C° 0.3 mm 5 mps 744 mmHg 58%
    21:00 +22°C° 0.3 mm 5 mps 744 mmHg 61%
    22:00 +22°C° 0.8 mm 4 mps 744 mmHg 69%
    23:00 +21°C° 0.8 mm 4 mps 744 mmHg 76%

    Day after tomorrow, 22 August, Wednesday

    Time Temperature Precipitation Wind Pressure Humidity
    00:00 +20°C° 0.8 mm 3 mps 744 mmHg 84%
    01:00 +19°C° 0.1 mm 3 mps 744 mmHg 86%
    02:00 +18°C° 0.1 mm 3 mps 744 mmHg 89%
    03:00 +18°C° 0.1 mm 3 mps 745 mmHg 92%
    04:00 +17°C° 0 mm 3 mps 745 mmHg 90%
    05:00 +16°C° 0 mm 3 mps 745 mmHg 89%
    06:00 +14°C° 0 mm 4 mps 746 mmHg 87%
    07:00 +15°C° 0 mm 4 mps 746 mmHg 78%
    08:00 +17°C° 0 mm 4 mps 746 mmHg 68%
    09:00 +17°C° 0 mm 5 mps 747 mmHg 58%
    10:00 +19°C° 0 mm 5 mps 747 mmHg 54%
    11:00 +20°C° 0 mm 5 mps 747 mmHg 50%
    12:00 +21°C° 0 mm 6 mps 748 mmHg 46%
    13:00 +21°C° 0 mm 6 mps 748 mmHg 45%
    14:00 +21°C° 0 mm 6 mps 748 mmHg 43%
    15:00 +22°C° 0 mm 6 mps 748 mmHg 42%
    16:00 +21°C° 0 mm 5 mps 748 mmHg 45%
    17:00 +20°C° 0 mm 5 mps 749 mmHg 49%
    18:00 +20°C° 0 mm 4 mps 749 mmHg 53%
    19:00 +18°C° 0 mm 3 mps 749 mmHg 57%
    20:00 +17°C° 0 mm 3 mps 750 mmHg 60%
    21:00 +16°C° 0 mm 3 mps 750 mmHg 64%
    22:00 +14°C° 0 mm 3 mps 751 mmHg 66%
    23:00 +14°C° 0 mm 3 mps 751 mmHg 68%

    23 August, Thursday

    Time Temperature Precipitation Wind Pressure Humidity
    00:00 +13°C° 0 mm 3 mps 751 mmHg 70%
    01:00 +12°C° 0 mm 3 mps 752 mmHg 72%
    02:00 +12°C° 0 mm 3 mps 752 mmHg 73%
    03:00 +12°C° 0 mm 2 mps 752 mmHg 75%
    04:00 +12°C° 0 mm 2 mps 753 mmHg 75%
    05:00 +12°C° 0 mm 2 mps 753 mmHg 75%
    06:00 +12°C° 0 mm 2 mps 753 mmHg 76%
    07:00 +13°C° 0 mm 2 mps 754 mmHg 69%
    08:00 +14°C° 0 mm 3 mps 754 mmHg 62%
    09:00 +17°C° 0 mm 3 mps 754 mmHg 55%
    10:00 +18°C° 0 mm 3 mps 754 mmHg 50%
    11:00 +19°C° 0 mm 3 mps 754 mmHg 46%
    12:00 +20°C° 0 mm 3 mps 754 mmHg 41%
    13:00 +20°C° 0 mm 3 mps 754 mmHg 40%
    14:00 +21°C° 0 mm 3 mps 754 mmHg 39%
    15:00 +21°C° 0 mm 3 mps 754 mmHg 38%
    16:00 +21°C° 0 mm 2 mps 754 mmHg 42%
    17:00 +20°C° 0 mm 2 mps 754 mmHg 45%
    18:00 +20°C° 0 mm 2 mps 754 mmHg 49%
    19:00 +18°C° 0 mm 2 mps 754 mmHg 51%
    20:00 +18°C° 0 mm 1 mps 754 mmHg 54%
    21:00 +15°C° 0 mm 1 mps 755 mmHg 56%
    22:00 +14°C° 0 mm 1 mps 755 mmHg 58%
    23:00 +14°C° 0 mm 1 mps 755 mmHg 59%

    24 August, Friday

    Time Temperature Precipitation Wind Pressure Humidity
    00:00 +12°C° 0 mm 0 mps 755 mmHg 60%
    01:00 +12°C° 0 mm 0 mps 755 mmHg 61%
    02:00 +12°C° 0 mm 0 mps 755 mmHg 62%
    03:00 +11°C° 0 mm 0 mps 755 mmHg 63%
    04:00 +11°C° 0 mm 0 mps 755 mmHg 64%
    05:00 +11°C° 0 mm 0 mps 755 mmHg 65%
    06:00 +11°C° 0 mm 0 mps 755 mmHg 67%
    07:00 +13°C° 0 mm 0 mps 755 mmHg 61%
    08:00 +15°C° 0 mm 0 mps 755 mmHg 55%
    09:00 +19°C° 0 mm 1 mps 756 mmHg 49%
    10:00 +21°C° 0 mm 1 mps 755 mmHg 46%
    11:00 +22°C° 0 mm 1 mps 755 mmHg 42%
    12:00 +23°C° 0 mm 1 mps 755 mmHg 39%
    13:00 +24°C° 0 mm 1 mps 755 mmHg 38%
    14:00 +24°C° 0 mm 1 mps 754 mmHg 36%
    15:00 +24°C° 0 mm 1 mps 754 mmHg 35%
    16:00 +24°C° 0 mm 1 mps 754 mmHg 38%
    17:00 +22°C° 0 mm 0 mps 754 mmHg 41%
    18:00 +21°C° 0 mm 0 mps 753 mmHg 44%
    19:00 +19°C° 0 mm 0 mps 753 mmHg 46%
    20:00 +20°C° 0 mm 1 mps 753 mmHg 47%
    21:00 +18°C° 0 mm 1 mps 753 mmHg 49%
    22:00 +18°C° 0 mm 1 mps 753 mmHg 50%
    23:00 +16°C° 0 mm 1 mps 753 mmHg 52%

    25 August, Saturday

    Time Temperature Precipitation Wind Pressure Humidity
    00:00 +16°C° 0 mm 1 mps 753 mmHg 53%
    01:00 +15°C° 0 mm 1 mps 753 mmHg 55%
    02:00 +15°C° 0 mm 1 mps 753 mmHg 57%
    03:00 +14°C° 0 mm 1 mps 753 mmHg 58%
    04:00 +14°C° 0 mm 1 mps 753 mmHg 60%
    05:00 +14°C° 0 mm 1 mps 753 mmHg 62%
    06:00 +14°C° 0 mm 1 mps 753 mmHg 64%
    07:00 +16°C° 0 mm 1 mps 753 mmHg 59%
    08:00 +18°C° 0 mm 2 mps 754 mmHg 54%
    09:00 +20°C° 0 mm 2 mps 754 mmHg 49%
    10:00 +21°C° 0 mm 2 mps 753 mmHg 45%
    11:00 +23°C° 0 mm 2 mps 753 mmHg 42%
    12:00 +25°C° 0 mm 2 mps 753 mmHg 38%
    13:00 +25°C° 0 mm 2 mps 753 mmHg 37%
    14:00 +25°C° 0 mm 2 mps 752 mmHg 36%
    15:00 +26°C° 0 mm 2 mps 752 mmHg 34%
    16:00 +25°C° 0 mm 2 mps 752 mmHg 38%
    17:00 +25°C° 0 mm 1 mps 751 mmHg 41%
    18:00 +24°C° 0 mm 1 mps 751 mmHg 45%
    19:00 +23°C° 0 mm 1 mps 751 mmHg 48%
    20:00 +20°C° 0 mm 2 mps 751 mmHg 50%
    21:00 +18°C° 0 mm 2 mps 751 mmHg 53%
    22:00 +18°C° 0 mm 2 mps 751 mmHg 55%
    23:00 +17°C° 0 mm 2 mps 751 mmHg 56%
    Show more